EW9433 Weather Reports


Display with metric or nautical units.
time (UTC)temp
F
wind
direction
speed
MPH
gust
MPH
rain 1hr
in
rain 24hr
in
rain mn
in
humidity
%
barometer
mb
20180820203016 88 292 7.0 16.0 0.00 0.00 0.00 47 1012.5
20180820200016 88 292 7.0 14.0 0.00 0.00 0.00 46 1012.7
20180820193016 88 292 6.0 11.0 0.00 0.00 0.00 46 1012.8
20180820190016 87 292 6.0 14.0 0.00 0.00 0.00 52 1013.0
20180820183016 87 292 6.0 13.0 0.00 0.00 0.00 50 1013.2
20180820180016 86 292 6.0 13.0 0.00 0.00 0.00 52 1013.4
20180820173016 85 292 5.0 14.0 0.00 0.00 0.00 53 1013.4
20180820170016 84 292 4.0 11.0 0.00 0.00 0.00 54 1013.5
20180820163016 83 292 6.0 13.0 0.00 0.00 0.00 58 1013.5
20180820160016 82 315 5.0 14.0 0.00 0.00 0.00 62 1013.2
20180820153016 81 337 6.0 14.0 0.00 0.00 0.00 68 1013.1
20180820150016 81 337 7.0 14.0 0.00 0.00 0.00 72 1012.9
20180820143016 81 292 6.0 12.0 0.00 0.00 0.00 79 1012.9
20180820140016 81 292 3.0 10.0 0.00 0.00 0.00 81 1012.8
20180820133016 79 225 3.0 8.0 0.00 0.00 0.00 83 1012.6
20180820130016 77 225 2.0 7.0 0.00 0.00 0.00 86 1011.7
20180820123016 75 180 1.0 4.0 0.00 0.00 0.00 90 1011.4
20180820120016 75 0.0 0.0 0.00 0.00 0.00 91 1011.0
20180820113016 76 0.0 3.0 0.00 0.00 0.00 91 1010.7
20180820110016 76 0.0 3.0 0.00 0.00 0.00 90 1010.5
20180820103017 77 0.0 2.0 0.00 0.00 0.00 89 1010.4
20180820100016 77 0.0 4.0 0.00 0.00 0.00 88 1010.1
20180820093016 76 180 1.0 4.0 0.00 0.00 0.00 93 1010.4
20180820090016 75 0.0 3.0 0.00 0.00 0.00 94 1009.9
20180820083016 75 0.0 0.0 0.00 0.00 0.00 94 1009.7
20180820080016 75 0.0 2.0 0.00 0.00 0.00 93 1009.5
20180820073016 76 0.0 0.0 0.00 0.00 0.00 93 1009.6
20180820070016 77 0.0 0.0 0.00 0.00 0.00 91 1009.3
20180820063016 77 0.0 2.0 0.00 0.00 0.00 91 1009.7
20180820060016 77 0.0 3.0 0.00 0.00 0.00 93 1009.8
20180820053019 77 0.0 0.0 0.00 0.00 0.00 92 1009.6
20180820050016 78 0.0 0.0 0.00 0.00 0.00 91 1009.5
20180820043016 78 0.0 0.0 0.00 0.00 0.00 91 1009.3
20180820040017 79 0.0 0.0 0.00 0.00 0.00 89 1009.2
20180820033016 80 0.0 0.0 0.00 0.00 0.00 84 1009.2
20180820030017 81 0.0 0.0 0.00 0.00 0.00 85 1008.9
20180820023017 81 0.0 0.0 0.00 0.00 0.00 81 1008.6
20180820020016 83 0.0 0.0 0.00 0.00 0.00 76 1008.3
20180820013017 86 0.0 0.0 0.00 0.00 0.00 72 1008.0
20180820010016 89 0.0 0.0 0.00 0.00 0.00 66 1007.8
20180820003017 92 0.0 0.0 0.00 0.02 0.00 58 1007.8
20180820000017 95 0.0 3.0 0.00 0.47 0.00 52 1007.6
20180819233016 95 0.0 4.0 0.00 0.80 0.00 53 1007.4
20180819230016 95 225 1.0 7.0 0.00 0.80 0.00 52 1007.5
20180819223016 94 157 3.0 8.0 0.00 0.80 0.00 55 1007.6
20180819220016 92 225 3.0 9.0 0.00 0.80 0.00 56 1007.6
20180819213016 91 225 5.0 12.0 0.00 0.80 0.00 57 1007.7
20180819210016 92 247 3.0 8.0 0.00 0.80 0.00 52 1008.0